Edwards AFB, CA

2:18 AM PDT on May 29, 2017 (GMT -0700)
Edwards Air Force Base

Weather History for KEDW - November, 2013

Change the Weather History Date:

Friday, November 29, 2013

  Actual Average Record
Temperature  
Mean Temperature 46 °F -  
Max Temperature 56 °F 58 °F 75 °F (2014)
Min Temperature 37 °F 31 °F 19 °F (2010)
Degree Days  
Heating Degree Days 18    
Moisture  
Dew Point 42 °F    
Average Humidity 88    
Maximum Humidity 100    
Minimum Humidity 52    
Precipitation  
Precipitation 0.00 in - - ()
Sea Level Pressure  
Sea Level Pressure 30.18 in    
Wind  
Wind Speed 3 mph (SW)    
Max Wind Speed 8 mph    
Max Gust Speed -    
Visibility 10 miles    
Events      
Averages and records for this station are not official NWS values.
T = Trace of Precipitation, MM = Missing Value Source: NWS Daily Summary

Daily Weather History Graph

Daily Weather History Graph

Search for Another Location

Airport or City:

Trip Planner

Search our weather history database for the weather conditions in past years. The results will help you decide how hot, cold, wet, or windy it might be!

Date:

Astronomy

Nov. 29, 2013 Rise Set
Actual Time 6:39 AM PST 4:40 PM PST
Civil Twilight 6:11 AM PST 5:07 PM PST
Nautical Twilight 5:40 AM PST 5:39 PM PST
Astronomical Twilight 5:10 AM PST 6:09 PM PST
Moon 2:57 AM PST 2:21 PM PST
Length of Visible Light 10h 56m
Length of Day
10h 00m
Waning Crescent, 13% of the Moon is Illuminated
Nov 29
Waning Crescent
Dec 2
New
Dec 9
First Quarter
Dec 17
Full
Dec 25
Last Quarter

Hourly Weather History & Observations

Time (PST) Temp. Windchill Dew Point Humidity Pressure Visibility Wind Dir Wind Speed Gust Speed Precip Events Conditions
12:58 AM 43.3 °F 38.6 °F 36.7 °F 77% 30.10 in 10.0 mi North 8.1 mph - N/A   Clear
1:58 AM 42.1 °F 39.2 °F 36.3 °F 80% 30.10 in 10.0 mi NNW 4.6 mph - N/A   Clear
2:58 AM 40.8 °F - 36.0 °F 83% 30.12 in 10.0 mi Calm Calm - N/A   Clear
3:13 AM 39.2 °F - 37.4 °F 93% 30.13 in 10.0 mi Calm Calm - N/A   Mostly Cloudy
3:58 AM 38.1 °F 34.6 °F 37.9 °F 99% 30.12 in 10.0 mi East 4.6 mph - N/A   Scattered Clouds
4:28 AM 37.4 °F - 37.4 °F 100% 30.13 in 10.0 mi WSW 2.3 mph - N/A   Mostly Cloudy
4:58 AM 38.8 °F - 38.8 °F 100% 30.15 in 10.0 mi WSW 1.2 mph - N/A   Overcast
5:58 AM 39.4 °F - 39.2 °F 99% 30.17 in 50.0 mi West 2.3 mph - N/A   Mostly Cloudy
6:58 AM 38.5 °F 36.1 °F 38.5 °F 100% 30.19 in 40.0 mi South 3.5 mph - N/A   Mostly Cloudy
7:58 AM 40.3 °F - 40.1 °F 99% 30.20 in 50.0 mi North 2.3 mph - N/A   Mostly Cloudy
8:58 AM 44.1 °F 42.5 °F 41.4 °F 90% 30.22 in 50.0 mi South 3.5 mph - N/A   Mostly Cloudy
9:58 AM 46.2 °F - 42.3 °F 86% 30.23 in 50.0 mi SW 1.2 mph - N/A   Mostly Cloudy
10:58 AM 48.9 °F - 43.2 °F 80% 30.22 in 50.0 mi South 5.8 mph - N/A   Overcast
11:58 AM 49.3 °F - 40.8 °F 73% 30.20 in 25.0 mi WSW 2.3 mph - N/A   Overcast
12:58 PM 51.8 °F - 42.8 °F 71% 30.17 in 40.0 mi Calm Calm - N/A   Mostly Cloudy
1:58 PM 54.1 °F - 40.5 °F 60% 30.17 in 40.0 mi WSW 2.3 mph - N/A   Mostly Cloudy
2:58 PM 56.3 °F - 38.8 °F 52% 30.16 in 40.0 mi SSW 2.3 mph - N/A   Mostly Cloudy
3:58 PM 56.1 °F - 39.6 °F 54% 30.17 in 40.0 mi Calm Calm - N/A   Overcast
4:58 PM 54.0 °F - 46.9 °F 77% 30.18 in 40.0 mi ENE 3.5 mph - N/A   Overcast
5:58 PM 51.8 °F - 51.4 °F 99% 30.19 in 40.0 mi Calm Calm - N/A   Overcast
6:58 PM 49.3 °F - 49.3 °F 100% 30.20 in 40.0 mi SSE 4.6 mph - N/A   Overcast
7:58 PM 48.7 °F - 48.6 °F 99% 30.22 in 40.0 mi SSW 4.6 mph - N/A   Overcast
8:58 PM 48.4 °F - 48.2 °F 99% 30.23 in 40.0 mi SW 4.6 mph - N/A   Overcast
9:58 PM 48.0 °F - 48.0 °F 100% 30.24 in 40.0 mi SSW 2.3 mph - N/A   Overcast
10:58 PM 47.7 °F - 47.7 °F 100% 30.24 in 10.0 mi SSW 3.5 mph - N/A   Overcast
11:28 PM 46.4 °F - 46.4 °F 100% 30.23 in 10.0 mi SW 2.3 mph - N/A   Scattered Clouds
11:58 PM 43.9 °F - 43.9 °F 100% 30.24 in 10.0 mi SW 2.3 mph - N/A   Clear